#Datum;Uhrzeit;WR;Pac;DaySum;Status;WR;Pac;DaySum;Status;Pdc1;Udc;Temp;WR;Pac;DaySum;Status;Pdc1;Udc;Temp;WR;Pac;DaySum;Status;Pdc1;Udc;Temp;WR;Pac;DaySum;Status;Pdc1;Pdc2;Udc1;Udc2;Temp;WR;Pac;DaySum;Status;Pdc1;Pdc2;Udc1;Udc2;Temp;WR;Pac;DaySum;Status;Pdc1;Udc;Temp;WR;Pac;DaySum;Status;Pdc1;Udc;Temp;WR;Pac;DaySum;Status;Pdc1;Udc;Temp
21.12.20;23:55:00;1;435;14338;0;2;0;4983;0;0;0;0;3;0;3291;0;0;0;0;4;0;4768;0;0;0;0;5;0;0;0;0;0;0;0;0;6;0;9146;0;0;0;0;0;0;7;0;7689;0;0;0;0;8;0;7661;0;0;0;0;9;0;4137;0;0;0;0
21.12.20;23:50:00;1;378;14301;0;2;0;4983;0;0;0;0;3;0;3291;0;0;0;0;4;0;4768;0;0;0;0;5;0;0;0;0;0;0;0;0;6;0;9146;0;0;0;0;0;0;7;0;7689;0;0;0;0;8;0;7661;0;0;0;0;9;0;4137;0;0;0;0
21.12.20;23:45:00;1;373;14269;0;2;0;4983;0;0;0;0;3;0;3291;0;0;0;0;4;0;4768;0;0;0;0;5;0;0;0;0;0;0;0;0;6;0;9146;0;0;0;0;0;0;7;0;7689;0;0;0;0;8;0;7661;0;0;0;0;9;0;4137;0;0;0;0
21.12.20;23:40:00;1;366;14237;0;2;0;4983;0;0;0;0;3;0;3291;0;0;0;0;4;0;4768;0;0;0;0;5;0;0;0;0;0;0;0;0;6;0;9146;0;0;0;0;0;0;7;0;7689;0;0;0;0;8;0;7661;0;0;0;0;9;0;4137;0;0;0;0
21.12.20;23:35:00;1;496;14189;0;2;0;4983;0;0;0;0;3;0;3291;0;0;0;0;4;0;4768;0;0;0;0;5;0;0;0;0;0;0;0;0;6;0;9146;0;0;0;0;0;0;7;0;7689;0;0;0;0;8;0;7661;0;0;0;0;9;0;4137;0;0;0;0
21.12.20;23:30:00;1;334;14146;0;2;0;4983;0;0;0;0;3;0;3291;0;0;0;0;4;0;4768;0;0;0;0;5;0;0;0;0;0;0;0;0;6;0;9146;0;0;0;0;0;0;7;0;7689;0;0;0;0;8;0;7661;0;0;0;0;9;0;4137;0;0;0;0
21.12.20;23:25:00;1;336;14118;0;2;0;4983;0;0;0;0;3;0;3291;0;0;0;0;4;0;4768;0;0;0;0;5;0;0;0;0;0;0;0;0;6;0;9146;0;0;0;0;0;0;7;0;7689;0;0;0;0;8;0;7661;0;0;0;0;9;0;4137;0;0;0;0
21.12.20;23:20:00;1;408;14090;0;2;0;4983;0;0;0;0;3;0;3291;0;0;0;0;4;0;4768;0;0;0;0;5;0;0;0;0;0;0;0;0;6;0;9146;0;0;0;0;0;0;7;0;7689;0;0;0;0;8;0;7661;0;0;0;0;9;0;4137;0;0;0;0
21.12.20;23:15:00;1;499;14056;0;2;0;4983;0;0;0;0;3;0;3291;0;0;0;0;4;0;4768;0;0;0;0;5;0;0;0;0;0;0;0;0;6;0;9146;0;0;0;0;0;0;7;0;7689;0;0;0;0;8;0;7661;0;0;0;0;9;0;4137;0;0;0;0
21.12.20;23:10:00;1;606;14013;0;2;0;4983;0;0;0;0;3;0;3291;0;0;0;0;4;0;4768;0;0;0;0;5;0;0;0;0;0;0;0;0;6;0;9146;0;0;0;0;0;0;7;0;7689;0;0;0;0;8;0;7661;0;0;0;0;9;0;4137;0;0;0;0
21.12.20;23:05:00;1;988;13962;0;2;0;4983;0;0;0;0;3;0;3291;0;0;0;0;4;0;4768;0;0;0;0;5;0;0;0;0;0;0;0;0;6;0;9146;0;0;0;0;0;0;7;0;7689;0;0;0;0;8;0;7661;0;0;0;0;9;0;4137;0;0;0;0
21.12.20;23:00:00;1;604;13879;0;2;0;4983;0;0;0;0;3;0;3291;0;0;0;0;4;0;4768;0;0;0;0;5;0;0;0;0;0;0;0;0;6;0;9146;0;0;0;0;0;0;7;0;7689;0;0;0;0;8;0;7661;0;0;0;0;9;0;4137;0;0;0;0
21.12.20;22:55:00;1;631;13828;0;2;0;4983;0;0;0;0;3;0;3291;0;0;0;0;4;0;4768;0;0;0;0;5;0;0;0;0;0;0;0;0;6;0;9146;2;0;0;0;0;0;7;0;7689;0;0;0;0;8;0;7661;0;0;0;0;9;0;4137;0;0;0;0
21.12.20;22:50:00;1;754;13776;0;2;0;4983;0;0;0;0;3;0;3291;0;0;0;0;4;0;4768;0;0;0;0;5;0;0;0;0;0;0;0;0;6;0;9146;2;0;0;0;0;0;7;0;7689;0;0;0;0;8;0;7661;0;0;0;0;9;0;4137;0;0;0;0
21.12.20;22:45:00;1;711;13715;0;2;0;4983;0;0;0;0;3;0;3291;0;0;0;0;4;0;4768;0;0;0;0;5;0;0;0;0;0;0;0;0;6;0;9146;2;0;0;0;0;0;7;0;7689;0;0;0;0;8;0;7661;0;0;0;0;9;0;4137;0;0;0;0
21.12.20;22:40:00;1;643;13655;0;2;0;4983;0;0;0;0;3;0;3291;0;0;0;0;4;0;4768;0;0;0;0;5;0;0;0;0;0;0;0;0;6;0;9146;2;0;0;0;0;0;7;0;7689;0;0;0;0;8;0;7661;0;0;0;0;9;0;4137;0;0;0;0
21.12.20;22:35:00;1;675;13600;0;2;0;4983;0;0;0;0;3;0;3291;0;0;0;0;4;0;4768;0;0;0;0;5;0;0;0;0;0;0;0;0;6;0;9146;2;0;0;0;0;0;7;0;7689;0;0;0;0;8;0;7661;0;0;0;0;9;0;4137;0;0;0;0
21.12.20;22:30:00;1;720;13544;0;2;0;4983;0;0;0;0;3;0;3291;0;0;0;0;4;0;4768;0;0;0;0;5;0;0;0;0;0;0;0;0;6;0;9146;2;0;0;0;0;0;7;0;7689;0;0;0;0;8;0;7661;0;0;0;0;9;0;4137;0;0;0;0
21.12.20;22:25:00;1;1309;13485;0;2;0;4983;0;0;0;0;3;0;3291;0;0;0;0;4;0;4768;0;0;0;0;5;0;0;0;0;0;0;0;0;6;0;9146;2;0;0;0;0;0;7;0;7689;0;0;0;0;8;0;7661;0;0;0;0;9;0;4137;0;0;0;0
21.12.20;22:20:00;1;730;13394;0;2;0;4983;0;0;0;0;3;0;3291;0;0;0;0;4;0;4768;0;0;0;0;5;0;0;0;0;0;0;0;0;6;0;9146;2;0;0;0;0;0;7;0;7689;0;0;0;0;8;0;7661;0;0;0;0;9;0;4137;0;0;0;0
21.12.20;22:15:00;1;672;13331;0;2;0;4983;0;0;0;0;3;0;3291;0;0;0;0;4;0;4768;0;0;0;0;5;0;0;0;0;0;0;0;0;6;0;9146;2;0;0;0;0;0;7;0;7689;0;0;0;0;8;0;7661;0;0;0;0;9;0;4137;0;0;0;0
21.12.20;22:10:00;1;694;13275;0;2;0;4983;0;0;0;0;3;0;3291;0;0;0;0;4;0;4768;0;0;0;0;5;0;0;0;0;0;0;0;0;6;0;9146;2;0;0;0;0;0;7;0;7689;0;0;0;0;8;0;7661;0;0;0;0;9;0;4137;0;0;0;0
21.12.20;22:05:00;1;691;13217;0;2;0;4983;0;0;0;0;3;0;3291;0;0;0;0;4;0;4768;0;0;0;0;5;0;0;0;0;0;0;0;0;6;0;9146;2;0;0;0;0;0;7;0;7689;0;0;0;0;8;0;7661;0;0;0;0;9;0;4137;0;0;0;0
21.12.20;22:00:00;1;649;13159;0;2;0;4983;0;0;0;0;3;0;3291;0;0;0;0;4;0;4768;0;0;0;0;5;0;0;0;0;0;0;0;0;6;0;9146;2;0;0;0;0;0;7;0;7689;0;0;0;0;8;0;7661;0;0;0;0;9;0;4137;0;0;0;0
21.12.20;21:55:00;1;1060;13104;0;2;0;4983;0;0;0;0;3;0;3291;0;0;0;0;4;0;4768;0;0;0;0;5;0;0;0;0;0;0;0;0;6;0;9146;2;0;0;0;0;0;7;0;7689;0;0;0;0;8;0;7661;0;0;0;0;9;0;4137;0;0;0;0
21.12.20;21:50:00;1;685;13012;0;2;0;4983;0;0;0;0;3;0;3291;0;0;0;0;4;0;4768;0;0;0;0;5;0;0;0;0;0;0;0;0;6;0;9146;2;0;0;0;0;0;7;0;7689;0;0;0;0;8;0;7661;0;0;0;0;9;0;4137;0;0;0;0
21.12.20;21:45:00;1;665;12954;0;2;0;4983;0;0;0;0;3;0;3291;0;0;0;0;4;0;4768;0;0;0;0;5;0;0;0;0;0;0;0;0;6;0;9146;2;0;0;0;0;0;7;0;7689;0;0;0;0;8;0;7661;0;0;0;0;9;0;4137;0;0;0;0
21.12.20;21:40:00;1;669;12899;0;2;0;4983;0;0;0;0;3;0;3291;0;0;0;0;4;0;4768;0;0;0;0;5;0;0;0;0;0;0;0;0;6;0;9146;2;0;0;0;0;0;7;0;7689;0;0;0;0;8;0;7661;0;0;0;0;9;0;4137;0;0;0;0
21.12.20;21:35:00;1;680;12842;0;2;0;4983;0;0;0;0;3;0;3291;0;0;0;0;4;0;4768;0;0;0;0;5;0;0;0;0;0;0;0;0;6;0;9146;2;0;0;0;0;0;7;0;7689;0;0;0;0;8;0;7661;0;0;0;0;9;0;4137;0;0;0;0
21.12.20;21:30:00;1;782;12786;0;2;0;4983;0;0;0;0;3;0;3291;0;0;0;0;4;0;4768;0;0;0;0;5;0;0;0;0;0;0;0;0;6;0;9146;2;0;0;0;0;0;7;0;7689;0;0;0;0;8;0;7661;0;0;0;0;9;0;4137;0;0;0;0
21.12.20;21:25:00;1;714;12722;0;2;0;4983;0;0;0;0;3;0;3291;0;0;0;0;4;0;4768;0;0;0;0;5;0;0;0;0;0;0;0;0;6;0;9146;2;0;0;0;0;0;7;0;7689;0;0;0;0;8;0;7661;0;0;0;0;9;0;4137;0;0;0;0
21.12.20;21:20:00;1;1122;12662;0;2;0;4983;0;0;0;0;3;0;3291;0;0;0;0;4;0;4768;0;0;0;0;5;0;0;0;0;0;0;0;0;6;0;9146;2;0;0;0;0;0;7;0;7689;0;0;0;0;8;0;7661;0;0;0;0;9;0;4137;0;0;0;0
21.12.20;21:15:00;1;674;12571;0;2;0;4983;0;0;0;0;3;0;3291;0;0;0;0;4;0;4768;0;0;0;0;5;0;0;0;0;0;0;0;0;6;0;9146;2;0;0;0;0;0;7;0;7689;0;0;0;0;8;0;7661;0;0;0;0;9;0;4137;0;0;0;0
21.12.20;21:10:00;1;715;12514;0;2;0;4983;0;0;0;0;3;0;3291;0;0;0;0;4;0;4768;0;0;0;0;5;0;0;0;0;0;0;0;0;6;0;9146;2;0;0;0;0;0;7;0;7689;0;0;0;0;8;0;7661;0;0;0;0;9;0;4137;0;0;0;0
21.12.20;21:05:00;1;768;12455;0;2;0;4983;0;0;0;0;3;0;3291;0;0;0;0;4;0;4768;0;0;0;0;5;0;0;0;0;0;0;0;0;6;0;9146;2;0;0;0;0;0;7;0;7689;0;0;0;0;8;0;7661;0;0;0;0;9;0;4137;0;0;0;0
21.12.20;21:00:00;1;778;12391;0;2;0;4983;0;0;0;0;3;0;3291;0;0;0;0;4;0;4768;0;0;0;0;5;0;0;0;0;0;0;0;0;6;0;9146;2;0;0;0;0;0;7;0;7689;0;0;0;0;8;0;7661;0;0;0;0;9;0;4137;0;0;0;0
21.12.20;20:55:00;1;740;12327;0;2;0;4983;0;0;0;0;3;0;3291;0;0;0;0;4;0;4768;0;0;0;0;5;0;0;0;0;0;0;0;0;6;0;9146;2;0;0;0;0;0;7;0;7689;0;0;0;0;8;0;7661;0;0;0;0;9;0;4137;0;0;0;0
21.12.20;20:50:00;1;718;12265;0;2;0;4983;0;0;0;0;3;0;3291;0;0;0;0;4;0;4768;0;0;0;0;5;0;0;0;0;0;0;0;0;6;0;9146;2;0;0;0;0;0;7;0;7689;0;0;0;0;8;0;7661;0;0;0;0;9;0;4137;0;0;0;0
21.12.20;20:45:00;1;682;12174;0;2;0;4983;0;0;0;0;3;0;3291;0;0;0;0;4;0;4768;0;0;0;0;5;0;0;0;0;0;0;0;0;6;0;9146;2;0;0;0;0;0;7;0;7689;0;0;0;0;8;0;7661;0;0;0;0;9;0;4137;0;0;0;0
21.12.20;20:40:00;1;744;12117;0;2;0;4983;0;0;0;0;3;0;3291;0;0;0;0;4;0;4768;0;0;0;0;5;0;0;0;0;0;0;0;0;6;0;9146;2;0;0;0;0;0;7;0;7689;0;0;0;0;8;0;7661;0;0;0;0;9;0;4137;0;0;0;0
21.12.20;20:35:00;1;937;12055;0;2;0;4983;0;0;0;0;3;0;3291;0;0;0;0;4;0;4768;0;0;0;0;5;0;0;0;0;0;0;0;0;6;0;9146;2;0;0;0;0;0;7;0;7689;0;0;0;0;8;0;7661;0;0;0;0;9;0;4137;0;0;0;0
21.12.20;20:30:00;1;855;11984;0;2;0;4983;0;0;0;0;3;0;3291;0;0;0;0;4;0;4768;0;0;0;0;5;0;0;0;0;0;0;0;0;6;0;9146;2;0;0;0;0;0;7;0;7689;0;0;0;0;8;0;7661;0;0;0;0;9;0;4137;0;0;0;0
21.12.20;20:25:00;1;793;11912;0;2;0;4983;0;0;0;0;3;0;3291;0;0;0;0;4;0;4768;0;0;0;0;5;0;0;0;0;0;0;0;0;6;0;9146;2;0;0;0;0;0;7;0;7689;0;0;0;0;8;0;7661;0;0;0;0;9;0;4137;0;0;0;0
21.12.20;20:20:00;1;1187;11846;0;2;0;4983;0;0;0;0;3;0;3291;0;0;0;0;4;0;4768;0;0;0;0;5;0;0;0;0;0;0;0;0;6;0;9146;2;0;0;0;0;0;7;0;7689;0;0;0;0;8;0;7661;0;0;0;0;9;0;4137;0;0;0;0
21.12.20;20:15:00;1;972;11744;0;2;0;4983;0;0;0;0;3;0;3291;0;0;0;0;4;0;4768;0;0;0;0;5;0;0;0;0;0;0;0;0;6;0;9146;2;0;0;0;0;0;7;0;7689;0;0;0;0;8;0;7661;0;0;0;0;9;0;4137;0;0;0;0
21.12.20;20:10:00;1;926;11664;0;2;0;4983;0;0;0;0;3;0;3291;0;0;0;0;4;0;4768;0;0;0;0;5;0;0;0;0;0;0;0;0;6;0;9146;2;0;0;0;0;0;7;0;7689;0;0;0;0;8;0;7661;0;0;0;0;9;0;4137;0;0;0;0
21.12.20;20:05:00;1;766;11589;0;2;0;4983;0;0;0;0;3;0;3291;0;0;0;0;4;0;4768;0;0;0;0;5;0;0;0;0;0;0;0;0;6;0;9146;2;0;0;0;0;0;7;0;7689;0;0;0;0;8;0;7661;0;0;0;0;9;0;4137;0;0;0;0
21.12.20;20:00:00;1;711;11524;0;2;0;4983;0;0;0;0;3;0;3291;0;0;0;0;4;0;4768;0;0;0;0;5;0;0;0;0;0;0;0;0;6;0;9146;2;0;0;0;0;0;7;0;7689;0;0;0;0;8;0;7661;0;0;0;0;9;0;4137;0;0;0;0
21.12.20;19:55:00;1;779;11464;0;2;0;4983;0;0;0;0;3;0;3291;0;0;0;0;4;0;4768;0;0;0;0;5;0;0;0;0;0;0;0;0;6;0;9146;2;0;0;0;0;0;7;0;7689;0;0;0;0;8;0;7661;0;0;0;0;9;0;4137;0;0;0;0
21.12.20;19:50:00;1;1361;11400;0;2;0;4983;0;0;0;0;3;0;3291;0;0;0;0;4;0;4768;0;0;0;0;5;0;0;0;0;0;0;0;0;6;0;9146;2;0;0;0;0;0;7;0;7689;0;0;0;0;8;0;7661;0;0;0;0;9;0;4137;0;0;0;0
21.12.20;19:45:00;1;1231;11294;0;2;0;4983;0;0;0;0;3;0;3291;0;0;0;0;4;0;4768;0;0;0;0;5;0;0;0;0;0;0;0;0;6;0;9146;2;0;0;0;0;0;7;0;7689;0;0;0;0;8;0;7661;0;0;0;0;9;0;4137;0;0;0;0
21.12.20;19:40:00;1;1092;11196;0;2;0;4983;0;0;0;0;3;0;3291;0;0;0;0;4;0;4768;0;0;0;0;5;0;0;0;0;0;0;0;0;6;0;9146;2;0;0;0;0;0;7;0;7689;0;0;0;0;8;0;7661;0;0;0;0;9;0;4137;0;0;0;0
21.12.20;19:35:00;1;651;11107;0;2;0;4983;0;0;0;0;3;0;3291;0;0;0;0;4;0;4768;0;0;0;0;5;0;0;0;0;0;0;0;0;6;0;9146;2;0;0;0;0;0;7;0;7689;0;0;0;0;8;0;7661;0;0;0;0;9;0;4137;0;0;0;0
21.12.20;19:30:00;1;639;11053;0;2;0;4983;0;0;0;0;3;0;3291;0;0;0;0;4;0;4768;0;0;0;0;5;0;0;0;0;0;0;0;0;6;0;9146;2;0;0;0;0;0;7;0;7689;0;0;0;0;8;0;7661;0;0;0;0;9;0;4137;0;0;0;0
21.12.20;19:25:00;1;640;10999;0;2;0;4983;0;0;0;0;3;0;3291;0;0;0;0;4;0;4768;0;0;0;0;5;0;0;0;0;0;0;0;0;6;0;9146;2;0;0;0;0;0;7;0;7689;0;0;0;0;8;0;7661;0;0;0;0;9;0;4137;0;0;0;0
21.12.20;19:20:00;1;699;10946;0;2;0;4983;0;0;0;0;3;0;3291;0;0;0;0;4;0;4768;0;0;0;0;5;0;0;0;0;0;0;0;0;6;0;9146;2;0;0;0;0;0;7;0;7689;0;0;0;0;8;0;7661;0;0;0;0;9;0;4137;0;0;0;0
21.12.20;19:15:00;1;807;10888;0;2;0;4983;0;0;0;0;3;0;3291;0;0;0;0;4;0;4768;0;0;0;0;5;0;0;0;0;0;0;0;0;6;0;9146;2;0;0;0;0;0;7;0;7689;0;0;0;0;8;0;7661;0;0;0;0;9;0;4137;0;0;0;0
21.12.20;19:10:00;1;644;10803;0;2;0;4983;0;0;0;0;3;0;3291;0;0;0;0;4;0;4768;0;0;0;0;5;0;0;0;0;0;0;0;0;6;0;9146;2;0;0;0;0;0;7;0;7689;0;0;0;0;8;0;7661;0;0;0;0;9;0;4137;0;0;0;0
21.12.20;19:05:00;1;670;10749;0;2;0;4983;0;0;0;0;3;0;3291;0;0;0;0;4;0;4768;0;0;0;0;5;0;0;0;0;0;0;0;0;6;0;9146;2;0;0;0;0;0;7;0;7689;0;0;0;0;8;0;7661;0;0;0;0;9;0;4137;0;0;0;0
21.12.20;19:00:00;1;683;10694;0;2;0;4983;0;0;0;0;3;0;3291;0;0;0;0;4;0;4768;0;0;0;0;5;0;0;0;0;0;0;0;0;6;0;9146;2;0;0;0;0;0;7;0;7689;0;0;0;0;8;0;7661;0;0;0;0;9;0;4137;0;0;0;0
21.12.20;18:55:00;1;987;10637;0;2;0;4983;0;0;0;0;3;0;3291;0;0;0;0;4;0;4768;0;0;0;0;5;0;0;0;0;0;0;0;0;6;0;9146;2;0;0;0;0;0;7;0;7689;0;0;0;0;8;0;7661;0;0;0;0;9;0;4137;0;0;0;0
21.12.20;18:50:00;1;801;10555;0;2;0;4983;0;0;0;0;3;0;3291;0;0;0;0;4;0;4768;0;0;0;0;5;0;0;0;0;0;0;0;0;6;0;9146;2;0;0;0;0;0;7;0;7689;0;0;0;0;8;0;7661;0;0;0;0;9;0;4137;0;0;0;0
21.12.20;18:45:00;1;439;10485;0;2;0;4983;0;0;0;0;3;0;3291;0;0;0;0;4;0;4768;0;0;0;0;5;0;0;0;0;0;0;0;0;6;0;9146;2;0;0;0;0;0;7;0;7689;0;0;0;0;8;0;7661;0;0;0;0;9;0;4137;0;0;0;0
21.12.20;18:40:00;1;1000;10448;0;2;0;4983;0;0;0;0;3;0;3291;0;0;0;0;4;0;4768;0;0;0;0;5;0;0;0;0;0;0;0;0;6;0;9146;2;0;0;0;0;0;7;0;7689;0;0;0;0;8;0;7661;0;0;0;0;9;0;4137;0;0;0;0
21.12.20;18:35:00;1;485;10379;0;2;0;4983;0;0;0;0;3;0;3291;0;0;0;0;4;0;4768;0;0;0;0;5;0;0;0;0;0;0;0;0;6;0;9146;2;0;0;0;0;0;7;0;7689;0;0;0;0;8;0;7661;0;0;0;0;9;0;4137;0;0;0;0
21.12.20;18:30:00;1;507;10339;0;2;0;4983;0;0;0;0;3;0;3291;0;0;0;0;4;0;4768;0;0;0;0;5;0;0;0;0;0;0;0;0;6;0;9146;2;0;0;0;0;0;7;0;7689;0;0;0;0;8;0;7661;0;0;0;0;9;0;4137;0;0;0;0
21.12.20;18:25:00;1;459;10296;0;2;0;4983;0;0;0;0;3;0;3291;0;0;0;0;4;0;4768;0;0;0;0;5;0;0;0;0;0;0;0;0;6;0;9146;2;0;0;0;0;0;7;0;7689;0;0;0;0;8;0;7661;0;0;0;0;9;0;4137;0;0;0;0
21.12.20;18:20:00;1;397;10257;0;2;0;4983;0;0;0;0;3;0;3291;0;0;0;0;4;0;4768;0;0;0;0;5;0;0;0;0;0;0;0;0;6;0;9146;2;0;0;0;0;0;7;0;7689;0;0;0;0;8;0;7661;0;0;0;0;9;0;4137;0;0;0;0
21.12.20;18:15:00;1;444;10223;0;2;0;4983;0;0;0;0;3;0;3291;0;0;0;0;4;0;4768;0;0;0;0;5;0;0;0;0;0;0;0;0;6;0;9146;2;0;0;0;0;0;7;0;7689;0;0;0;0;8;0;7661;0;0;0;0;9;0;4137;0;0;0;0
21.12.20;18:10:00;1;861;10187;0;2;0;4983;0;0;0;0;3;0;3291;0;0;0;0;4;0;4768;0;0;0;0;5;0;0;0;0;0;0;0;0;6;0;9146;2;0;0;0;0;0;7;0;7689;0;0;0;0;8;0;7661;0;0;0;0;9;0;4137;0;0;0;0
21.12.20;18:05:00;1;463;10116;0;2;0;4983;0;0;0;0;3;0;3291;0;0;0;0;4;0;4768;0;0;0;0;5;0;0;0;0;0;0;0;0;6;0;9146;2;0;0;0;0;0;7;0;7689;0;0;0;0;8;0;7661;0;0;0;0;9;0;4137;0;0;0;0
21.12.20;18:00:00;1;490;10077;0;2;0;4983;0;0;0;0;3;0;3291;0;0;0;0;4;0;4768;0;0;0;0;5;0;0;0;0;0;0;0;0;6;0;9146;2;0;0;0;0;0;7;0;7689;0;0;0;0;8;0;7661;0;0;0;0;9;0;4137;0;0;0;0
21.12.20;17:55:00;1;435;10038;0;2;0;4983;0;0;0;0;3;0;3291;0;0;0;0;4;0;4768;0;0;0;0;5;0;0;0;0;0;0;0;0;6;0;9146;2;0;0;0;0;0;7;0;7689;0;0;0;0;8;0;7661;0;0;0;0;9;0;4137;0;0;0;0
21.12.20;17:50:00;1;422;10000;0;2;0;4983;0;0;0;0;3;0;3291;0;0;0;0;4;0;4768;0;0;0;0;5;0;0;0;0;0;0;0;0;6;0;9146;2;0;0;0;0;0;7;0;7689;0;0;0;0;8;0;7661;0;0;0;0;9;0;4137;0;0;0;0
21.12.20;17:45:00;1;423;9965;0;2;0;4983;0;0;0;0;3;0;3291;0;0;0;0;4;0;4768;0;0;0;0;5;0;0;0;0;0;0;0;0;6;0;9146;2;0;0;0;0;0;7;0;7689;0;0;0;0;8;0;7661;0;0;0;0;9;0;4137;0;0;0;0
21.12.20;17:40:00;1;477;9930;0;2;0;4983;0;0;0;0;3;0;3291;0;0;0;0;4;0;4768;0;0;0;0;5;0;0;0;0;0;0;0;0;6;0;9146;2;0;0;0;0;0;7;0;7689;0;0;0;0;8;0;7661;0;0;0;0;9;0;4137;0;0;0;0
21.12.20;17:35:00;1;2666;9886;0;2;0;4983;0;0;0;0;3;0;3291;0;0;0;0;4;0;4768;0;0;0;0;5;0;0;0;0;0;0;0;0;6;0;9146;2;0;0;0;0;0;7;0;7689;0;0;0;0;8;0;7661;0;0;0;0;9;0;4137;0;0;0;0
21.12.20;17:30:00;1;2857;9673;0;2;0;4983;0;0;0;0;3;0;3291;0;0;0;0;4;0;4768;0;0;0;0;5;0;0;0;0;0;0;0;0;6;0;9146;2;0;0;0;0;0;7;0;7689;0;0;0;0;8;0;7661;0;0;0;0;9;0;4137;0;0;0;0
21.12.20;17:25:00;1;2510;9491;0;2;0;4983;0;0;0;0;3;0;3291;0;0;0;0;4;0;4768;0;0;0;0;5;0;0;0;0;0;0;0;0;6;0;9146;2;0;0;0;0;0;7;0;7689;0;0;0;0;8;0;7661;0;0;0;0;9;0;4137;0;0;0;0
21.12.20;17:20:00;1;2472;9304;0;2;0;4983;0;0;0;0;3;0;3291;0;0;0;0;4;0;4768;0;0;0;0;5;0;0;0;0;0;0;0;0;6;0;9146;2;0;0;0;0;0;7;0;7689;0;0;0;0;8;0;7661;0;0;0;0;9;0;4137;0;0;0;0
21.12.20;17:15:00;1;4436;9084;0;2;0;4983;0;0;0;0;3;0;3291;0;0;0;0;4;0;4768;0;0;0;0;5;0;0;0;0;0;0;0;0;6;0;9146;2;0;0;0;0;0;7;0;7689;0;0;0;0;8;0;7661;0;0;0;0;9;0;4137;0;0;0;0
21.12.20;17:10:00;1;4948;8733;0;2;0;4983;0;0;0;0;3;0;3291;0;0;0;0;4;0;4768;0;0;0;0;5;0;0;0;0;0;0;0;0;6;0;9146;2;0;0;0;0;0;7;0;7689;0;0;0;0;8;0;7661;0;0;0;0;9;0;4137;0;0;0;0
21.12.20;17:05:00;1;451;8471;0;2;0;4983;0;0;0;0;3;0;3291;0;0;0;0;4;0;4768;0;0;0;0;5;0;0;0;0;0;0;0;0;6;0;9146;2;0;0;0;0;0;7;0;7689;0;0;0;0;8;0;7661;0;0;0;0;9;0;4137;0;0;0;0
21.12.20;17:00:00;1;1169;8433;0;2;0;4983;0;0;0;0;3;0;3291;0;0;0;0;4;0;4768;0;0;0;0;5;0;0;0;0;0;0;0;0;6;0;9146;2;0;0;0;0;0;7;0;7689;0;0;0;0;8;0;7661;0;0;0;0;9;0;4137;0;0;0;0
21.12.20;16:55:00;1;423;8362;0;2;0;4983;0;0;0;0;3;0;3291;0;0;0;0;4;0;4768;0;0;0;0;5;0;0;0;0;0;0;0;0;6;0;9146;2;0;0;0;0;0;7;0;7689;0;0;0;0;8;0;7661;0;0;0;0;9;0;4137;0;0;0;0
21.12.20;16:50:00;1;376;8326;0;2;0;4983;0;0;0;0;3;0;3291;0;0;0;0;4;0;4768;0;0;0;0;5;0;0;0;0;0;0;0;0;6;0;9146;2;0;0;0;0;0;7;0;7689;0;0;0;0;8;0;7661;0;0;0;0;9;0;4137;0;0;0;0
21.12.20;16:45:00;1;391;8295;0;2;0;4983;0;0;0;0;3;0;3291;0;0;0;0;4;0;4768;0;0;0;0;5;0;0;0;0;0;0;0;0;6;0;9146;2;0;0;0;0;0;7;0;7689;0;0;0;0;8;0;7661;0;0;0;0;9;0;4137;0;0;0;0
21.12.20;16:40:00;1;400;8253;0;2;0;4983;0;0;0;0;3;0;3291;0;0;0;0;4;0;4768;0;0;0;0;5;0;0;0;0;0;0;0;0;6;0;9146;2;0;0;0;0;0;7;0;7689;0;0;0;0;8;0;7661;0;0;0;0;9;0;4137;0;0;0;0
21.12.20;16:35:00;1;399;8220;0;2;0;4983;0;0;0;0;3;0;3291;0;0;166;7;4;0;4768;0;0;0;0;5;0;0;0;0;0;0;0;0;6;0;9146;2;0;0;0;0;0;7;0;7689;0;0;0;0;8;0;7661;0;0;0;0;9;0;4137;0;0;0;0
21.12.20;16:30:00;1;876;8187;0;2;0;4983;2;0;261;9;3;0;3291;6;0;294;12;4;0;4768;0;0;0;0;5;0;0;0;0;0;0;0;0;6;0;9146;2;0;0;0;0;0;7;0;7689;0;0;0;0;8;0;7661;0;0;0;0;9;0;4137;0;0;0;0
21.12.20;16:25:00;1;313;8115;0;2;0;4983;6;0;286;9;3;0;3291;6;0;326;13;4;0;4768;0;0;61;8;5;0;0;0;0;0;0;0;0;6;0;9146;0;0;0;0;0;0;7;0;7689;0;0;0;0;8;0;7661;0;0;0;0;9;0;4137;0;0;0;0
21.12.20;16:20:00;1;286;8088;0;2;0;4983;6;0;339;9;3;0;3291;6;2;386;13;4;0;4768;1;0;119;10;5;0;0;0;0;0;0;0;0;6;0;9146;2;7;3;384;169;21;7;0;7689;0;0;153;8;8;0;7661;0;0;155;7;9;0;4137;0;0;220;7
21.12.20;16:15:00;1;334;8064;0;2;0;4983;6;0;360;10;3;0;3291;6;1;433;13;4;0;4768;1;0;148;10;5;0;0;0;0;0;0;0;0;6;0;9146;23;6;3;181;506;22;7;0;7689;6;0;294;14;8;0;7661;6;0;301;13;9;0;4137;6;0;314;10
21.12.20;16:10:00;1;315;8036;0;2;0;4983;6;0;378;10;3;0;3291;6;1;453;13;4;0;4768;1;0;178;10;5;0;0;0;0;0;0;0;0;6;0;9146;23;7;3;181;543;22;7;0;7689;6;0;346;14;8;0;7661;6;0;353;13;9;0;4137;6;0;372;10
21.12.20;16:05:00;1;290;8010;0;2;0;4983;6;0;398;10;3;0;3291;6;3;484;13;4;0;4768;1;0;215;11;5;0;0;0;0;0;0;0;0;6;0;9146;23;4;4;251;574;23;7;0;7689;6;1;402;14;8;0;7661;6;1;407;14;9;0;4137;3;1;425;10
21.12.20;16:00:00;1;391;7987;0;2;2;4983;6;7;402;10;3;1;3291;6;4;506;13;4;0;4768;3;0;211;11;5;0;0;0;0;0;0;0;0;6;26;9146;1;5;14;538;518;23;7;0;7689;6;2;444;15;8;2;7661;6;1;448;14;9;1;4137;6;2;490;10
21.12.20;15:55:00;1;380;7953;0;2;4;4982;6;8;412;11;3;3;3291;4;11;493;14;4;0;4768;3;0;200;11;5;0;0;0;0;0;0;0;0;6;68;9143;4;37;50;470;447;24;7;1;7689;6;4;467;15;8;0;7661;6;4;467;14;9;2;4136;6;3;515;10
21.12.20;15:50:00;1;446;7921;0;2;20;4982;6;36;393;11;3;2;3291;3;8;527;14;4;6;4768;3;7;200;12;5;0;0;0;0;0;0;0;0;6;89;9138;4;43;55;470;447;24;7;2;7688;6;7;481;15;8;1;7661;6;7;483;15;9;0;4136;6;4;531;11
21.12.20;15:45:00;1;658;7881;0;2;63;4980;4;91;359;11;3;4;3290;6;9;542;14;4;24;4768;3;24;198;12;5;0;0;0;0;0;0;0;0;6;124;9130;4;56;72;470;447;24;7;33;7688;6;64;399;15;8;38;7661;6;61;382;15;9;2;4136;6;6;551;11
21.12.20;15:40:00;1;358;7811;0;2;81;4975;4;110;370;12;3;7;3290;6;12;546;14;4;39;4766;3;41;198;12;5;0;0;0;0;0;0;0;0;6;146;9119;4;69;82;469;447;24;7;50;7685;4;90;445;16;8;59;7658;4;92;375;15;9;4;4136;6;8;555;11
21.12.20;15:35:00;1;404;7781;0;2;107;4968;4;138;375;12;3;44;3289;6;69;491;14;4;65;4762;3;68;198;12;5;0;0;0;0;0;0;0;0;6;183;9107;4;87;95;469;447;24;7;85;7681;4;125;435;16;8;87;7653;4;121;408;15;9;13;4136;4;19;543;11
21.12.20;15:30:00;1;415;7747;0;2;132;4959;4;167;380;12;3;76;3286;4;110;465;15;4;84;4757;3;87;209;12;5;0;0;0;0;0;0;0;0;6;210;9091;4;90;102;470;447;24;7;125;7674;4;153;430;16;8;111;7646;4;145;388;15;9;10;4135;6;16;577;11
21.12.20;15:25:00;1;324;7712;0;2;147;4948;4;181;383;12;3;86;3279;4;124;484;15;4;103;4750;5;106;229;12;5;0;0;0;0;0;0;0;0;6;223;9074;4;100;111;470;447;24;7;131;7664;4;168;446;16;8;130;7636;4;164;388;15;9;69;4133;4;97;462;12
21.12.20;15:20:00;1;370;7685;0;2;159;4936;4;194;377;12;3;91;3272;4;129;508;15;4;116;4741;5;120;225;12;5;0;0;0;0;0;0;0;0;6;239;9055;4;117;128;469;447;24;7;135;7653;4;183;458;16;8;143;7625;4;179;409;16;9;76;4127;4;103;456;12
21.12.20;15:15:00;1;620;7654;0;2;177;4922;4;212;378;12;3;102;3264;4;143;512;15;4;135;4731;5;140;227;12;5;0;0;0;0;0;0;0;0;6;257;9035;4;96;101;470;447;24;7;169;7641;4;199;423;16;8;172;7614;4;209;447;16;9;90;4121;4;117;466;12
21.12.20;15:10:00;1;394;7593;0;2;188;4908;4;224;389;12;3;112;3256;4;152;504;15;4;141;4720;5;147;228;12;5;0;0;0;0;0;0;0;0;6;286;9013;4;107;131;470;504;24;7;184;7627;4;210;405;16;8;185;7599;4;222;433;16;9;96;4113;4;128;493;12
21.12.20;15:05:00;1;334;7561;0;2;223;4892;4;261;392;12;3;134;3247;4;174;507;15;4;176;4708;5;183;228;13;5;0;0;0;0;0;0;0;0;6;375;8988;4;193;210;569;556;24;7;217;7612;4;263;442;16;8;227;7584;4;266;449;16;9;119;4105;4;152;515;12
21.12.20;15:00:00;1;394;7532;0;2;244;4873;4;282;392;13;3;150;3235;4;188;502;15;4;198;4694;5;206;232;13;5;0;0;0;0;0;0;0;0;6;410;8957;4;210;228;577;563;24;7;250;7594;4;286;467;16;8;249;7565;4;291;464;16;9;131;4095;4;163;513;12
21.12.20;14:55:00;1;359;7501;0;2;244;4853;4;279;392;13;3;148;3223;4;186;481;15;4;194;4677;5;202;233;13;5;0;0;0;0;0;0;0;0;6;398;8923;4;190;209;578;560;24;7;247;7573;4;281;439;16;8;242;7544;4;281;473;16;9;128;4085;4;161;523;13
21.12.20;14:50:00;1;362;7471;0;2;252;4833;4;289;393;13;3;154;3211;4;192;482;15;4;201;4661;5;210;232;13;5;0;0;0;0;0;0;0;0;6;411;8889;4;205;224;580;566;24;7;259;7552;4;297;461;16;8;255;7524;4;296;471;16;9;135;4074;4;168;522;13
21.12.20;14:45:00;1;484;7440;0;2;250;4812;4;291;394;13;3;154;3198;4;193;478;15;4;204;4644;5;212;233;13;5;0;0;0;0;0;0;0;0;6;413;8855;4;208;225;576;564;24;7;254;7531;4;292;460;16;8;253;7503;4;299;463;16;9;134;4063;4;167;517;13
21.12.20;14:40:00;1;690;7400;0;2;254;4791;4;291;383;13;3;158;3185;4;194;474;15;4;205;4627;5;214;230;13;5;0;0;0;0;0;0;0;0;6;420;8821;4;216;228;573;561;24;7;232;7510;4;280;474;16;8;261;7482;4;303;467;16;9;138;4051;4;171;517;13
21.12.20;14:35:00;1;478;7334;0;2;286;4770;4;327;395;13;3;178;3172;4;215;482;16;4;234;4610;5;244;234;13;5;0;0;0;0;0;0;0;0;6;471;8785;4;258;276;587;561;24;7;300;7490;4;341;472;17;8;298;7460;4;345;478;16;9;162;4040;4;195;516;13
21.12.20;14:30:00;1;495;7293;0;2;305;4746;4;346;400;13;3;187;3157;4;226;487;16;4;252;4590;5;263;232;13;5;0;0;0;0;0;0;0;0;6;502;8745;4;241;254;587;558;24;7;300;7465;4;354;485;17;8;325;7435;4;364;462;16;9;174;4026;4;207;517;13
21.12.20;14:25:00;1;467;7252;0;2;325;4720;4;367;401;14;3;202;3141;4;244;503;16;4;273;4569;5;284;239;14;5;0;0;0;0;0;0;0;0;6;537;8703;4;266;283;588;569;24;7;327;7440;4;380;484;17;8;340;7408;4;382;447;17;9;186;4012;4;220;520;13
21.12.20;14:20:00;1;447;7213;0;2;351;4693;4;393;400;14;3;217;3124;4;259;516;16;4;296;4547;5;309;237;14;5;0;0;0;0;0;0;0;0;6;581;8658;4;301;322;578;566;24;7;368;7413;4;413;480;17;8;376;7380;4;422;459;17;9;202;3996;4;236;509;14
21.12.20;14:15:00;1;471;7175;0;2;430;4664;4;454;404;14;3;253;3106;4;300;518;16;4;350;4522;5;364;240;14;5;0;0;0;0;0;0;0;0;6;667;8609;4;327;341;588;566;24;7;454;7382;4;488;470;17;8;447;7348;4;492;455;17;9;238;3979;4;277;521;14
21.12.20;14:10:00;1;486;7136;0;2;458;4628;4;506;407;14;3;287;3085;4;335;522;16;4;398;4493;5;414;240;14;5;0;0;0;0;0;0;0;0;6;741;8553;4;369;379;588;570;24;7;506;7345;4;549;461;17;8;512;7311;4;564;472;17;9;274;3959;4;314;532;14
21.12.20;14:05:00;1;573;7098;0;2;480;4590;4;529;402;14;3;302;3061;4;345;516;17;4;419;4460;5;436;241;14;5;0;0;0;0;0;0;0;0;6;775;8491;4;395;414;591;569;24;7;552;7303;4;593;478;17;8;551;7269;4;599;486;17;9;293;3937;4;334;536;14
21.12.20;14:00:00;1;498;7055;0;2;525;4550;4;575;410;15;3;329;3036;4;378;522;17;4;458;4425;5;476;242;14;5;0;0;0;0;0;0;0;0;6;844;8426;4;429;436;599;568;24;7;598;7257;4;653;491;18;8;604;7223;4;660;487;17;9;324;3912;4;369;533;15
21.12.20;13:55:00;1;418;7017;0;2;574;4506;4;626;412;15;3;360;3009;4;413;527;17;4;497;4387;5;518;244;15;5;0;0;0;0;0;0;0;0;6;917;8355;4;457;468;592;577;24;7;666;7207;4;719;487;18;8;674;7172;4;728;483;17;9;358;3885;4;404;534;15
21.12.20;13:50:00;1;418;6982;0;2;588;4458;4;640;407;15;3;368;2979;4;421;528;17;4;512;4345;5;533;243;15;5;0;0;0;0;0;0;0;0;6;948;8278;4;479;490;598;578;25;7;694;7152;4;741;485;18;8;697;7116;4;750;484;18;9;370;3855;4;416;528;15
21.12.20;13:45:00;1;621;6948;0;2;639;4409;4;695;418;15;3;406;2948;4;459;521;17;4;555;4302;5;578;245;15;5;0;0;0;0;0;0;0;0;6;1018;8198;4;510;514;599;579;25;7;754;7094;4;817;478;18;8;768;7058;4;819;482;18;9;411;3824;4;458;533;15
21.12.20;13:40:00;1;683;6884;0;2;688;4356;4;745;417;15;3;436;2914;4;489;520;17;4;598;4256;5;623;245;15;5;0;0;0;0;0;0;0;0;6;1084;8113;4;550;548;600;573;25;7;833;7031;4;895;487;18;8;832;6994;4;895;487;18;9;448;3790;4;497;542;15
21.12.20;13:35:00;1;1530;6803;0;2;728;4299;4;785;410;16;3;460;2878;4;516;530;17;4;634;4206;5;660;244;15;5;0;0;0;0;0;0;0;0;6;1143;8022;4;581;584;604;580;25;7;885;6961;4;943;487;18;8;887;6925;4;947;484;18;9;474;3753;4;526;539;16
21.12.20;13:30:00;1;2246;6701;0;2;728;4238;4;785;410;16;3;459;2839;4;513;516;17;4;638;4153;5;664;242;15;5;0;0;0;0;0;0;0;0;6;1145;7927;4;578;582;601;581;25;7;878;6888;4;943;483;18;8;883;6851;4;946;488;18;9;476;3713;4;526;537;16